Terug naar catalogus

ARIANE 5 R/B

LostMEO
NORAD 43059·ROCKET BODY·🇫🇷 France

Gelanceerd Dec 12, 2017 vanaf Guiana Space Centre

Loading…

Volgende Passages (komende 24 uur)

TLE

VerouderdSource: Space-Track

Epoch: Aug 4, 2026, 18:14 UTC

1 43059U 17079E   26216.75977759  .00000083  00000-0  00000-0 0  9999
2 43059  55.0973 217.1661 0002651 281.2678  78.7156  1.73189446 54695

Volg ARIANE 5 R/B in realtime met AllMySat

Download on the App Store